Wind_Gust
12 12 15 13 12 13 13 13 12 12 12 13 13 12 13 10 9 8 7 4 7 7 6 5 4 3 3 5 6 7 7 5 6 6 7 8 7 6 6 6 6 6
10 12 13 13 10 10 11 12 12 12 12 13 13 13 11 12 9 9 7 6 6 6 5 5 4 4 3 4 6 8 6 6 5 5 7 6 5 5 5 5 5 5
9 11 13 12 12 10 11 9 11 12 11 12 13 13 12 13 12 8 10 9 8 6 6 5 3 2 2 3 6 7 6 6 6 4 5 5 4 4 2 3 5 5
8 10 10 10 10 11 10 9 9 11 8 12 12 12 13 12 12 10 9 10 9 7 6 5 5 4 3 5 4 6 6 5 6 4 5 4 4 5 4 4 3 6
8 9 9 9 8 10 9 8 9 10 9 10 11 11 12 12 11 9 10 8 8 8 7 7 5 5 3 5 5 5 6 6 5 5 6 5 4 7 5 5 2 2
3 6 7 9 8 12 12 10 9 10 8 9 11 13 13 13 12 10 10 9 8 10 8 7 6 5 3 4 5 4 7 6 6 6 5 5 4 5 5 6 3 2
3 4 5 6 7 9 10 9 7 9 9 7 5 8 13 12 12 12 10 10 9 8 9 9 8 6 6 4 5 2 5 6 6 7 5 6 7 5 4 6 6 4
6 4 5 5 5 6 8 7 7 8 8 8 7 6 8 12 13 11 11 11 10 10 8 10 9 9 8 6 7 4 4 4 6 7 6 5 6 6 4 7 6 5
7 6 7 6 7 9 4 4 4 6 6 7 7 7 6 8 9 9 11 11 12 11 9 8 11 11 10 9 8 8 6 6 6 7 7 4 6 8 6 4 5 4
10 9 14 13 7 4 6 7 8 3 2 5 5 3 5 6 10 14 17 20 21 18 14 9 10 12 13 13 12 11 10 10 7 8 8 6 7 7 7 7 6 4
6 5 6 5 5 7 5 7 8 7 7 5 4 3 2 3 11 15 11 11 13 10 10 11 10 14 20 18 13 11 12 12 10 10 9 8 6 8 8 8 8 8
5 5 6 5 6 5 5 5 5 4 4 3 3 5 3 3 9 9 12 11 12 11 8 7 10 13 15 19 16 12 11 11 12 12 11 10 7 7 8 8 10 9
4 6 7 6 6 6 5 5 5 5 4 5 5 4 4 6 5 6 9 12 13 11 11 8 10 13 15 18 17 13 12 13 12 12 12 12 9 9 9 8 10 8
12 10 8 7 6 5 6 6 6 5 6 5 3 3 2 4 4 6 6 7 8 8 6 9 10 10 10 11 15 15 14 13 12 13 14 13 11 10 8 9 10 7
7 6 6 7 7 6 6 6 5 6 5 5 4 6 6 6 5 5 7 6 5 5 6 5 8 12 14 14 12 8 4 9 14 15 14 13 11 11 10 11 9 9
3 5 7 7 6 7 8 7 8 7 6 6 7 7 7 5 5 6 7 8 7 6 7 8 10 10 9 13 10 6 7 8 7 9 11 12 13 12 11 12 11 10
2 2 1 1 2 5 7 11 10 8 7 9 9 7 8 8 9 9 9 9 9 8 9 10 12 12 12 12 13 10 8 10 12 11 9 12 13 14 13 12 11 12
2 4 5 3 3 3 4 3 4 5 9 10 8 5 8 8 10 11 11 10 10 10 10 12 12 11 15 15 16 15 13 14 12 11 11 9 11 12 12 12 12 12
4 3 1 2 2 2 4 5 6 7 6 3 4 9 7 8 10 9 10 10 10 11 12 13 12 12 16 16 16 15 15 13 11 12 13 14 10 11 11 12 11 10
2 2 3 2 3 6 6 6 5 5 4 5 7 8 5 4 4 7 7 8 10 11 11 10 10 10 14 15 15 12 10 11 9 9 10 13 13 13 13 11 10 10
1 1 1 1 2 2 3 4 5 5 6 7 6 5 6 8 7 7 6 6 8 7 8 4 5 11 16 17 13 9 10 9 11 10 11 10 9 9 9 9 9 10
4 3 2 1 1 1 1 2 3 3 5 6 4 4 6 5 8 7 7 8 6 7 3 4 2 5 5 6 10 11 11 10 9 10 11 8 9 8 9 9 10 9
3 2 2 1 2 2 2 3 4 5 7 4 3 4 5 5 6 8 7 7 8 4 8 4 5 6 9 11 11 13 11 10 10 11 10 10 9 8 8 7 6 5
4 3 3 2 1 1 2 3 3 2 4 3 3 4 5 6 7 6 10 9 8 8 5 10 6 7 12 13 13 12 10 12 10 12 10 10 8 6 8 7 4 7
4 4 4 4 5 5 4 4 4 4 4 2 3 3 5 5 6 10 9 11 9 10 11 12 9 6 11 13 14 13 12 10 11 10 10 8 9 9 9 10 10 13
4 5 6 6 6 6 6 7 6 3 3 2 4 3 4 8 8 10 11 8 8 9 11 10 12 7 8 14 13 14 12 12 9 13 11 9 8 9 8 6 9 10
Wind_Speed
7 7 9 8 7 7 7 7 6 7 7 7 7 7 7 6 5 5 4 3 4 5 4 3 3 2 2 3 4 4 4 3 3 4 4 5 4 4 4 4 4 4
7 7 8 8 7 6 6 7 6 7 7 7 7 7 7 7 6 6 4 4 4 4 4 3 2 1 1 3 4 4 4 3 3 2 3 4 2 3 3 3 4 3
6 6 8 8 8 7 7 6 6 6 7 7 6 6 7 7 7 5 6 5 5 4 4 4 2 1 1 1 4 4 4 4 3 1 3 3 1 3 1 1 3 4
4 5 6 7 6 7 7 6 5 5 5 7 7 7 7 6 6 6 6 6 6 5 4 4 4 3 2 3 3 3 4 3 4 3 3 3 2 2 1 1 2 4
2 4 4 5 5 7 6 5 6 6 5 7 7 6 7 6 6 5 6 5 5 5 5 4 4 3 1 2 3 3 3 4 2 3 3 1 1 4 2 2 0 1
1 3 4 5 5 7 7 6 6 6 5 5 7 8 7 8 6 6 6 6 5 6 5 4 4 4 2 3 1 2 3 3 4 4 4 3 2 2 3 2 1 1
1 3 3 4 5 6 7 6 5 6 6 4 4 5 8 7 7 7 6 6 6 5 6 4 5 4 3 3 3 1 2 2 4 4 3 3 3 2 1 3 3 2
1 1 3 3 4 4 5 4 5 5 6 6 5 4 5 8 9 6 5 6 6 6 5 4 5 4 4 3 4 2 3 2 4 4 3 2 3 4 3 4 4 3
4 3 4 4 4 5 2 1 2 4 4 5 4 4 4 5 6 5 3 5 6 5 2 3 6 6 5 4 4 5 4 4 4 4 4 3 4 5 4 3 3 2
5 4 6 6 4 3 4 4 4 3 0 2 1 1 3 4 6 9 9 7 6 5 2 4 3 3 3 6 7 6 6 6 4 5 5 4 4 5 4 4 4 3
1 2 3 0 1 3 3 2 3 3 3 3 2 2 1 2 6 5 5 7 8 7 5 3 4 7 6 5 7 5 8 7 7 6 6 5 4 5 5 5 4 5
2 3 3 4 4 3 3 2 2 3 3 2 2 3 2 2 6 5 7 5 4 5 5 4 6 7 6 8 8 7 6 7 7 7 7 7 5 4 5 5 5 5
0 2 3 3 3 3 3 3 3 3 2 3 2 2 2 4 3 4 4 5 6 6 6 4 6 7 7 10 9 8 7 7 7 7 7 7 6 6 6 5 6 5
6 5 5 4 3 3 3 3 3 3 4 3 1 1 2 3 2 3 4 5 5 5 4 6 7 6 6 6 9 9 7 7 8 8 9 8 7 6 5 6 6 5
4 4 4 4 4 4 4 4 4 4 3 2 1 2 3 3 3 3 3 3 2 2 3 4 5 7 8 8 7 5 3 6 8 8 7 8 7 7 6 7 6 6
3 4 5 4 4 4 5 5 4 4 3 3 4 4 4 3 3 4 4 4 4 4 4 5 6 5 7 11 8 4 5 5 3 3 5 6 7 7 7 7 7 6
2 1 1 0 2 4 4 5 4 4 3 4 3 3 4 4 3 4 4 5 5 4 4 5 6 6 11 10 10 8 4 4 4 4 5 6 7 8 7 7 6 7
1 2 2 1 1 2 3 2 3 3 4 4 3 3 4 3 3 5 5 5 5 5 6 6 6 9 12 12 12 12 11 8 7 7 5 3 5 7 7 7 7 7
3 3 1 1 1 1 2 3 4 4 1 1 3 5 3 3 5 4 6 6 6 6 7 7 6 10 13 13 13 12 13 10 6 6 7 8 6 7 6 6 6 6
1 1 2 1 2 4 4 4 4 3 3 3 4 2 1 2 3 5 5 5 5 7 7 6 6 9 13 13 13 11 10 9 5 5 6 8 8 8 7 7 6 6
0 0 1 0 1 1 2 3 3 3 4 5 4 3 4 5 4 4 2 3 4 4 4 2 3 10 13 14 12 7 10 8 5 5 5 5 6 5 6 5 5 5
2 2 1 0 1 1 0 1 1 2 3 4 2 3 4 4 5 4 5 5 4 4 1 2 0 4 2 2 5 8 10 6 6 6 6 5 5 4 5 5 6 6
2 2 1 0 1 1 1 2 3 4 4 1 2 3 3 4 4 4 4 4 4 2 3 1 2 2 7 10 10 11 8 6 6 6 6 6 6 5 5 4 3 3
2 1 1 1 0 0 1 2 2 1 2 1 1 2 3 4 3 3 5 4 4 4 3 3 3 2 8 11 12 11 9 7 6 7 6 6 5 4 4 4 3 4
3 3 3 3 4 3 2 3 3 3 2 1 1 0 2 2 4 6 5 5 5 4 7 7 4 4 5 10 12 12 9 6 6 6 6 4 5 5 5 6 6 8
3 4 4 5 5 4 4 4 4 1 1 1 2 2 1 4 5 6 6 5 4 4 5 4 6 4 5 10 11 12 11 7 5 7 7 5 5 5 5 4 6 6
Wind_Direction
151 141 142 146 150 155 153 154 159 153 154 155 153 163 157 167 155 144 172 126 130 121 118 107 95 69 42 64 99 98 99 93 77 88 80 80 74 74 58 53 53 91
153 143 137 143 142 152 154 160 163 158 161 163 166 161 159 154 165 148 163 136 130 128 124 122 128 149 125 99 106 108 100 93 94 102 94 90 89 68 68 62 58 79
146 141 137 143 150 159 163 165 164 165 155 169 163 159 157 159 164 153 156 145 142 141 139 147 148 174 137 150 113 126 120 120 139 142 113 145 124 92 90 44 45 85
141 145 142 142 144 161 169 149 164 166 151 141 164 167 156 164 160 155 155 151 145 154 155 151 170 204 154 185 125 136 154 152 180 140 131 131 149 136 147 69 64 90
134 150 150 161 147 162 163 154 154 162 163 160 149 153 148 153 159 154 156 156 150 157 158 163 170 199 161 187 157 148 179 157 177 129 130 192 193 137 149 96 66 65
118 165 171 174 163 157 169 166 163 153 159 158 158 151 159 161 161 164 161 163 158 158 167 163 171 194 165 190 173 148 188 145 182 148 157 177 190 156 139 146 131 79
255 159 156 144 134 137 155 159 155 143 139 157 142 153 156 159 167 170 169 165 163 156 168 172 172 189 195 164 190 143 242 162 190 178 172 200 168 185 164 151 172 164
264 189 131 122 121 116 135 153 162 154 156 137 134 168 151 166 169 171 166 161 166 166 161 181 182 181 192 153 191 178 223 198 191 208 197 200 182 187 196 182 185 181
15 16 61 65 52 25 34 108 162 177 161 149 164 161 139 149 172 155 112 67 46 13 337 191 187 187 186 173 185 196 200 216 186 200 210 194 191 198 196 178 182 153
76 84 17 6 45 50 43 38 43 40 55 123 107 80 106 109 93 98 108 119 136 151 181 268 242 199 190 191 189 194 200 210 194 195 209 200 187 201 192 172 178 175
139 80 117 127 105 131 113 75 67 67 56 79 85 82 75 76 98 112 117 140 153 159 188 191 98 77 62 347 301 234 203 200 194 189 200 209 197 199 190 179 177 187
121 137 148 169 159 130 124 143 161 141 123 88 119 144 157 155 137 146 150 174 170 176 179 164 126 133 155 190 215 241 233 206 197 190 191 194 201 200 200 171 182 185
20 165 206 187 177 164 170 173 181 176 171 190 179 132 128 111 119 150 183 180 200 203 196 165 149 150 172 204 215 216 217 217 201 196 192 190 196 189 199 169 178 178
194 197 199 196 197 187 192 201 195 199 206 204 189 142 128 142 147 179 208 195 200 199 171 150 166 175 192 212 220 220 210 211 209 197 195 192 187 186 174 158 160 158
183 175 180 175 180 179 182 204 220 235 233 231 210 222 212 205 177 175 192 214 198 181 183 185 184 188 194 204 211 220 210 218 223 211 192 186 181 173 161 156 147 141
140 168 185 175 175 187 198 200 218 219 224 241 243 229 218 201 186 187 195 207 209 204 192 203 215 216 216 217 217 175 172 189 206 233 208 183 173 160 156 156 151 141
345 336 44 110 183 185 198 213 215 204 215 242 245 239 235 229 204 208 210 208 207 203 206 215 223 225 222 216 210 190 199 206 205 218 216 196 173 161 156 155 152 143
62 50 14 16 59 45 65 111 158 191 235 251 236 209 224 205 214 222 216 209 206 207 209 215 224 231 218 222 225 202 192 201 205 206 188 193 177 158 154 153 157 154
35 42 7 26 27 38 32 18 13 16 58 153 205 242 237 200 219 217 224 213 204 206 215 216 220 231 221 220 228 228 197 196 199 191 166 179 171 158 153 157 157 151
12 343 332 352 34 38 36 23 19 357 342 343 352 20 126 189 216 227 245 240 219 212 213 215 213 221 220 221 223 215 188 172 178 159 162 160 162 158 158 158 153 152
312 208 226 144 79 41 17 359 346 323 323 310 313 298 306 307 315 317 286 258 253 236 221 200 206 197 204 214 216 172 157 144 133 129 112 112 117 124 125 129 123 116
277 288 287 70 92 90 83 312 309 273 269 283 302 309 314 321 309 313 299 300 285 270 215 155 300 347 244 219 156 143 130 126 132 129 127 116 101 96 100 103 105 101
15 29 5 297 186 179 208 225 245 281 292 288 319 313 308 306 270 287 352 9 354 352 142 85 18 28 126 133 137 129 109 113 110 107 108 109 112 105 97 94 92 106
21 52 31 57 69 184 228 247 252 269 264 255 254 289 309 273 298 51 42 31 46 54 70 87 26 25 127 131 133 125 122 118 112 105 105 113 114 125 137 128 140 171
357 360 341 332 322 288 250 255 251 238 235 216 255 249 267 3 56 85 61 44 43 74 87 96 88 33 65 109 113 114 109 113 112 106 96 90 97 81 68 77 69 62
319 312 290 284 276 279 285 261 243 210 219 216 255 241 34 79 78 81 81 58 50 61 69 85 100 72 64 75 78 82 92 93 93 104 106 96 79 84 71 50 76 71